Hourly Data Report for October 18, 2015

All times are specified in Local Standard Time (LST). Add 1 hour to adjust for Daylight Saving Time where and when it is observed.

RESOLUTE BAY A
NUNAVUT

74°43'01.000" N
94°58'10.000" W
67.70 m
2403498
71924
YRB

Download Data

Hourly Data (October 2015)
Hourly Data Report for October 18, 2015
Temp Definition
°C
Dew Point Temp Definition
°C
Rel Hum Definition
%
Wind Dir Definition
10's deg

Wind Spd Definition
km/h
Visibility Definition
km
Stn Press Definition
kPa
Hmdx Definition


Wind Chill Definition


Weather Definition


TIME
00:00 Legend Double Dagger -10.3 -13.0 81 6 14 9.7 100.03   -17 Cloudy
01:00 Legend Double Dagger -10.5 -13.5 79 19 7 9.7 100.05   -15 Snow
02:00 Legend Double Dagger -10.4 -14.2 74 36 7 9.7 100.06   -14 Snow
03:00 Legend Double Dagger -10.7 -14.5 74 4 19 11.3 100.08   -19 Snow
04:00 Legend Double Dagger -10.8 -14.4 75 3 20 11.3 100.13   -19 Snow
05:00 Legend Double Dagger -10.4 -14.4 73 2 21 11.3 100.17   -19 Snow
06:00 Legend Double Dagger -11.3 -14.6 77 3 22 11.3 100.19   -20 Snow
07:00 Legend Double Dagger -11.7 -14.5 80 2 21 11.3 100.22   -20 Snow
08:00 Legend Double Dagger -11.9 -14.7 80 2 18 24.1 100.24   -20 LegendNANA
09:00 Legend Double Dagger -12.2 -15.0 80 1 17 24.1 100.29   -20 Cloudy
10:00 Legend Double Dagger -12.0 -14.6 81 36 20 24.1 100.33   -20 Snow
11:00 Legend Double Dagger -11.9 -14.7 80 36 21 24.1 100.35   -20 Snow
12:00 Legend Double Dagger -11.8 -14.1 83 36 15 24.1 100.37   -19 Snow
13:00 Legend Double Dagger -12.9 -14.9 85 2 19 24.1 100.42   -21 Snow
14:00 Legend Double Dagger -16.9 -18.4 88 1 20 24.1 100.45   -27 Snow
15:00 Legend Double Dagger -14.3 -16.0 87 1 15 24.1 100.48   -22 Cloudy
16:00 Legend Double Dagger -14.1 -16.0 86 2 21 24.1 100.52   -23 Snow
17:00 Legend Double Dagger -15.0 -16.8 86 1 20 24.1 100.53   -24 Snow
18:00 Legend Double Dagger -14.0 -15.9 86 1 19 24.1 100.57   -23 Snow
19:00 Legend Double Dagger -13.9 -15.8 86 1 15 24.1 100.59   -22 Snow
20:00 Legend Double Dagger -14.3 -15.7 89 35 18 24.1 100.61   -23 Snow
21:00 Legend Double Dagger -14.9 -16.2 90 35 17 24.1 100.63   -23 Snow
22:00 Legend Double Dagger -16.2 -17.6 89 36 12 16.1 100.64   -23 Snow
23:00 Legend Double Dagger -17.1 -18.6 88 34 8 9.7 100.65   -23 Snow,Fog

Notes on Data Quality.

Legend

  • E = Estimated
  • M = Missing
  • NA = Not Available
  • ‡ = Partner data that is not subject to review by the National Climate Archives
Date modified: